Home   Weather   Alpena   Past weeks

Flag for USA Past Weather in Alpena, Michigan, USA — Yesterday and Last 2 Weeks

31 °F


Feels Like: 31 °F
Forecast: 33 / 44 °F
Wind: No wind

Location: Alpena County Regional Airport

Current Time: Oct 26, 2016 at 7:24:58 AM

Latest Report: Oct 26, 2016 at 6:54 AM

Visibility: 10 mi

Pressure: 30.52 "Hg

Humidity: 79%

Dew Point: 25 °F

Location of AlpenaLocation

Past Weather in Alpena — Graph


Alpena Temperature Yesterday

Maximum temperature yesterday: 46 °F (at 12:54 PM)
Minimum temperature yesterday: 29 °F (at 11:54 PM)
Average temperature yesterday: 40 °F

High & Low Weather Summary for the Past Weeks

High74 °F (Oct 12, 1:54 PM)97% (Oct 16, 8:54 AM)30.51 "Hg (Oct 16, 8:54 AM)
Low28 °F (Oct 26, 12:54 AM)38% (Oct 19, 2:54 PM)29.36 "Hg (Oct 18, 4:54 AM)
Average52 °F74%30.04 "Hg
* Reported Oct 11 5:54 AM — Oct 26 5:54 AM, Alpena, Weather by CustomWeather, © 2016

Note: Actual official high and low records may vary slightly from our data, if they occured in-between our weather recording intervals... More about our weather records


Alpena Weather History for the Previous 24 Hours

Scroll right to see more
Time TempWeatherWind HumidityBarometerVisibility
5:54 AM
Wed, Oct 26
28 °FPassing clouds.No wind85%30.51 "Hg10 mi
4:54 AM32 °FClear.6 mph79%30.50 "Hg10 mi
3:54 AM30 °FPassing clouds.7 mph85%30.51 "Hg10 mi
2:54 AM31 °FPassing clouds.3 mph85%30.50 "Hg10 mi
1:54 AM32 °FPassing clouds.No wind82%30.48 "Hg10 mi
12:54 AM28 °FClear.No wind89%30.48 "Hg10 mi
11:54 PM
Tue, Oct 25
29 °FClear.No wind85%30.50 "Hg10 mi
10:54 PM30 °FClear.No wind85%30.50 "Hg10 mi
9:54 PM32 °FPassing clouds.No wind79%30.50 "Hg10 mi
8:54 PM38 °FPassing clouds.3 mph65%30.49 "Hg10 mi
7:54 PM37 °FClear.5 mph70%30.48 "Hg10 mi
6:54 PM39 °FClear.8 mph62%30.47 "Hg10 mi
5:54 PM43 °FSunny.10 mph53%30.46 "Hg10 mi
4:54 PM46 °FSunny.9 mph50%30.45 "Hg10 mi
3:54 PM46 °FPartly sunny.14 mph50%30.46 "Hg10 mi
2:54 PM46 °FOvercast.14 mph51%30.46 "Hg10 mi
1:54 PM46 °FPartly sunny.10 mph50%30.47 "Hg10 mi
12:54 PM46 °FPartly sunny.14 mph50%30.47 "Hg10 mi
11:54 AM45 °FBroken clouds.13 mph56%30.46 "Hg10 mi
10:54 AM43 °FBroken clouds.13 mph60%30.46 "Hg10 mi
9:54 AM42 °FOvercast.9 mph68%30.45 "Hg10 mi
8:54 AM41 °FOvercast.6 mph74%30.44 "Hg10 mi
7:54 AM40 °FOvercast.5 mph80%30.42 "Hg10 mi
Weather by CustomWeather, © 2016

See weather overviewHow to use our weather pages